datetime,date,obs,time,plot,efflux,vtot,rh.cmbr,tsoil,rh.irga,ins.depth,tblk,co2s,h2os,tair,press,status,soil.mois,trenched
2013-04-17T09:48:53,2013-04-17,1,09:48:53,1,4.651002855,991,80.90599461,5.680261612,80.28501892,0,20.00164223,424.5118103,19.61697578,20.22792816,97.40213013,110005,38.4,0
2013-04-17T09:49:31,2013-04-17,2,09:49:31,1,4.904516043,991,83.89181469,5.569969177,83.35642242,0,20.04205513,425.8283386,20.41119766,20.26267052,97.40229797,110005,38.4,0
2013-04-17T09:50:07,2013-04-17,3,09:50:07,1,5.028652304,991,84.85125817,5.497577286,84.20330048,0,20.10616112,426.0057373,20.69161987,20.3201313,97.40363312,110005,38.4,0
2013-04-17T09:53:52,2013-04-17,4,09:53:52,2,2.11329418,991,73.05805199,5.768029785,70.20250702,0,20.72541237,420.2283936,17.77934265,20.80717468,97.39116669,110005,30.8,0
2013-04-17T09:54:53,2013-04-17,5,09:54:53,2,2.446248168,991,77.38837748,5.803258133,73.84700775,0,20.8977108,420.2794495,18.85240364,20.93766785,97.39461517,110005,30.8,0
2013-04-17T09:55:52,2013-04-17,6,09:55:52,2,2.537723929,991,79.00159924,5.803100204,74.76747894,0,21.0728817,420.4093628,19.26688194,21.090765,97.39925385,110005,30.8,0
2013-04-17T09:57:23,2013-04-17,7,09:57:23,3,4.032048883,991,62.07053514,5.917198944,60.10845566,0,21.05982399,420.7394714,15.49810219,21.10101891,97.4058075,110005,40.9,0
2013-04-17T09:58:00,2013-04-17,8,09:58:00,3,4.45112227,991,67.1165981,5.791958237,64.78897095,0,21.12020683,420.6990967,16.75997734,21.15449142,97.40497589,110005,40.9,0
2013-04-17T09:58:36,2013-04-17,9,09:58:36,3,4.519302358,991,69.37977153,5.694135284,67.08159637,0,21.08994293,420.7430725,17.30696487,21.11054039,97.40116119,110005,40.9,0
2013-04-17T10:01:35,2013-04-17,10,10:01:35,4,3.567512752,991,55.57439442,5.934659576,54.29468155,0,21.00303459,420.31604,13.94101048,21.0332489,97.40539551,110005,40.2,0
2013-04-17T10:02:19,2013-04-17,11,10:02:19,4,3.725096725,991,59.43684722,6.172210312,57.82026291,0,21.16913986,420.5869446,14.96881866,21.16741371,97.40707397,110005,40.2,0
2013-04-17T10:03:02,2013-04-17,12,10:03:02,4,3.75556378,991,61.13084254,6.427674866,59.06830978,0,21.33354187,420.6361389,15.43280029,21.31677055,97.40620422,110005,40.2,0
2013-04-17T10:06:10,2013-04-17,13,10:06:10,101,1.523191608,991,54.13832457,6.503679657,48.26067734,0,21.45011902,420.2442017,12.71325684,21.45110321,97.40653992,110005,28.9,1
2013-04-17T10:07:37,2013-04-17,14,10:07:37,101,1.649323543,991,57.40843848,6.136271286,50.725914,0,21.54514885,420.2116089,13.46639919,21.5756073,97.39570618,110005,28.9,1
2013-04-17T10:09:12,2013-04-17,15,10:09:12,101,1.666428411,991,58.94900519,5.894187164,51.83294296,0,21.66161537,420.1583252,13.83330154,21.66334152,97.40291595,110005,28.9,1
2013-04-17T10:12:08,2013-04-17,16,10:12:08,102,1.770364682,991,84.38236106,6.060466385,75.57628632,0,22.06175041,420.1830444,20.74487877,22.12440109,97.40655518,110005,30.2,1
2013-04-17T10:13:31,2013-04-17,17,10:13:31,102,2.000962459,991,86.5054248,6.02273941,76.91902161,0,22.27994156,420.3167114,21.37168121,22.32458687,97.40961456,110005,30.2,1
2013-04-17T10:14:50,2013-04-17,18,10:14:50,102,2.069521917,991,86.6909981,5.921117401,77.02655029,0,22.36520004,420.4657898,21.54467201,22.43315506,97.40351105,110005,30.2,1
2013-04-17T11:21:41,2013-04-17,19,11:21:41,5,2.50028909,991,35.99536203,6.947586823,37.03982544,0,22.80523491,420.4190674,10.67305565,22.92796135,97.42990875,110005,35.9,0
2013-04-17T11:22:41,2013-04-17,20,11:22:41,5,2.536602687,991,39.53467562,7.167472839,40.16981506,0,23.19177055,420.3067017,11.82009983,23.2692318,97.39906311,110005,35.9,0
2013-04-17T11:23:43,2013-04-17,21,11:23:43,5,2.548032167,991,41.79912025,7.322350311,41.99442291,0,23.52775574,420.5027771,12.5758667,23.55895996,97.39165497,110005,35.9,0
2013-04-17T11:25:21,2013-04-17,22,11:25:21,6,3.799872239,991,48.05602253,6.315978622,48.21405029,0,23.64978218,420.4315491,14.57826042,23.71922302,97.39313507,110005,27.5,0
2013-04-17T11:26:02,2013-04-17,23,11:26:02,6,3.998114152,991,53.6165905,6.055832291,53.6396904,0,23.63600159,420.6934204,16.21043205,23.710989,97.39503479,110005,27.5,0
2013-04-17T11:26:42,2013-04-17,24,11:26:42,6,3.950897165,991,56.79198453,5.855489349,56.64981461,0,23.6028347,420.6572571,17.10647202,23.69743347,97.39322662,110005,27.5,0
2013-04-17T11:29:21,2013-04-17,25,11:29:21,7,3.107572572,991,31.42008198,4.963356018,30.92111969,0,23.64055443,420.3571472,9.32516098,23.6769352,97.39879608,110005,46.9,0
2013-04-17T11:30:08,2013-04-17,26,11:30:08,7,3.387459256,991,34.47844242,4.901473236,33.65829468,0,23.79520988,420.3823853,10.23579597,23.81543732,97.3969574,110005,46.9,0
2013-04-17T11:30:55,2013-04-17,27,11:30:55,7,3.484551749,991,36.7218637,4.804071426,35.62482452,0,23.97632408,420.4272461,10.9372139,23.97311783,97.39525604,110005,46.9,0
2013-04-17T11:32:42,2013-04-17,28,11:32:42,8,3.332048177,991,38.45841236,4.796840286,36.58343124,0,23.93058014,420.7327881,11.22363853,23.96116638,97.39365387,110005,37.8,0
2013-04-17T11:33:31,2013-04-17,29,11:33:31,8,3.427169251,991,42.90698709,4.744210815,40.50502014,0,24.02181435,420.6504822,12.49319553,24.05055237,97.39731598,110005,37.8,0
2013-04-17T11:34:18,2013-04-17,30,11:34:18,8,3.590136455,991,45.32949781,4.770175934,42.6603775,0,24.09097672,420.6626282,13.21276951,24.11921883,97.39413452,110005,37.8,0
2013-04-17T11:38:29,2013-04-17,31,11:38:29,9,5.088623935,991,47.35943847,5.539863586,45.24927902,0,23.12494659,425.0961304,13.27844524,23.22324181,97.39437866,110005,44.3,0
2013-04-17T11:39:05,2013-04-17,32,11:39:05,9,4.692339417,991,51.33568396,5.446320343,48.92603302,0,23.32914543,420.6828003,14.51821423,23.4088192,97.40083313,110005,44.3,0
2013-04-17T11:39:41,2013-04-17,33,11:39:41,9,4.618825096,991,53.7322294,5.353702927,51.1584816,0,23.51744461,420.6342468,15.35143566,23.59329033,97.39467621,110005,44.3,0
2013-04-17T11:41:55,2013-04-17,34,11:41:55,201,1.980188205,991,36.00719273,6.1005867,33.7877655,0,24.22086334,420.3567505,10.55845356,24.26822472,97.39634705,110005,26.3,1
2013-04-17T11:43:15,2013-04-17,35,11:43:15,201,1.985902113,991,38.57568766,5.874309921,36.00376129,0,24.39670181,420.2432861,11.37796307,24.45491219,97.39215088,110005,26.3,1
2013-04-17T11:44:35,2013-04-17,36,11:44:35,201,1.985100363,991,40.04976043,5.724255371,37.16307449,0,24.64562416,420.254425,11.92888641,24.71641922,97.39674377,110005,26.3,1
2013-04-17T11:46:44,2013-04-17,37,11:46:44,202,1.979926317,991,47.57115256,6.452367401,45.22650146,0,24.94321251,420.3189392,14.77801704,25.01413345,97.39256287,110005,38.6,1
2013-04-17T11:47:57,2013-04-17,38,11:47:57,202,2.138297453,991,50.69261261,6.297306824,48.01172638,0,25.12894249,420.1972351,15.84062386,25.17667389,97.39341736,110005,38.6,1
2013-04-17T11:49:09,2013-04-17,39,11:49:09,202,2.202040738,991,52.71670736,6.218293762,49.39083862,0,25.30401802,420.3092957,16.45549965,25.34003258,97.38933563,110005,38.6,1
2013-04-17T11:50:55,2013-04-17,40,11:50:55,10,4.002780973,991,40.45481833,7.514149475,38.82989883,0,24.99316597,420.6880188,12.72604561,25.06297302,97.38363647,110005,19,0
2013-04-17T11:51:36,2013-04-17,41,11:51:36,10,4.196460923,991,44.58462502,6.983584595,42.85219574,0,25.11263275,420.5942688,14.11459541,25.14581108,97.3780365,110005,19,0
2013-04-17T11:52:14,2013-04-17,42,11:52:14,10,4.460162001,991,47.1108616,6.681314087,44.94873047,0,25.21804619,420.4528198,14.87653923,25.22643089,97.3769989,110005,19,0
2013-04-17T11:56:18,2013-04-17,43,11:56:18,11,2.371843033,991,43.14051636,5.751714706,40.82310486,0,25.40574455,420.3200073,13.66658783,25.41659927,97.36408997,110005,34.9,0
2013-04-17T11:57:26,2013-04-17,44,11:57:26,11,2.341874468,991,46.15763164,5.672272873,43.56228256,0,25.87431335,420.2043457,14.98257065,25.87123108,97.36252594,110005,34.9,0
2013-04-17T11:58:34,2013-04-17,45,11:58:34,11,2.363168869,991,48.29323632,5.619684219,45.22883224,0,26.27883148,420.3710022,15.91976738,26.26292229,97.36594391,110005,34.9,0
2013-04-17T12:04:56,2013-04-17,46,12:04:56,12,3.799650012,991,30.63894654,6.262200165,30.36660957,0,23.98847389,420.6463623,9.416572571,24.13572502,97.37232971,110005,34.1,0
2013-04-17T12:05:38,2013-04-17,47,12:05:38,12,3.919026286,991,33.1110087,6.105722427,32.50771332,0,24.27749252,420.3623352,10.24711418,24.40846252,97.36830139,110005,34.1,0
2013-04-17T12:06:20,2013-04-17,48,12:06:20,12,3.884220228,991,34.61597605,6.020465851,33.71717072,0,24.63099861,420.5474548,10.8294878,24.72325516,97.37630463,110005,34.1,0
2013-04-17T12:08:05,2013-04-17,49,12:08:05,13,3.08730196,991,33.3314516,6.21602211,32.32911301,0,25.2261467,420.455719,10.73141003,25.27461433,97.36953735,110005,27.6,0
2013-04-17T12:08:53,2013-04-17,50,12:08:53,13,3.317979297,991,36.02324631,6.055131912,34.69075012,0,25.42597389,420.4873047,11.64417744,25.46149254,97.3680191,110005,27.6,0
2013-04-17T12:09:40,2013-04-17,51,12:09:40,13,3.378663529,991,37.57533746,5.918099976,35.92974472,0,25.65157509,420.4188538,12.20418739,25.66217995,97.37132263,110005,27.6,0
2013-04-17T12:11:24,2013-04-17,52,12:11:24,14,3.268470448,991,34.15284393,6.437985229,32.85934067,0,25.81101799,420.3866882,11.25957775,25.80916977,97.36603546,110005,39.9,0
2013-04-17T12:12:12,2013-04-17,53,12:12:12,14,3.51564746,991,38.1159664,6.190671158,36.51314926,0,26.00966835,420.7383118,12.64919472,25.99425125,97.36817169,110005,39.9,0
2013-04-17T12:12:58,2013-04-17,54,12:12:58,14,3.637976336,991,40.55210184,6.062384033,38.76504517,0,26.13916779,420.5541687,13.53121758,26.12042046,97.35874939,110005,39.9,0
2013-04-17T12:14:12,2013-04-17,55,12:14:12,15,3.890606203,991,38.82204341,6.512322235,36.84555817,0,26.19347382,420.6416931,12.92731667,26.20765877,97.36156464,110005,42.3,0
2013-04-17T12:14:55,2013-04-17,56,12:14:55,15,3.754297642,991,44.27079243,6.097330475,41.82042313,0,26.27993965,420.4425049,14.75425434,26.30127525,97.36057281,110005,42.3,0
2013-04-17T12:15:34,2013-04-17,57,12:15:34,15,4.287616043,991,46.90304299,5.955918121,44.09122849,0,26.39531898,420.9749146,15.65777397,26.41271019,97.36216736,110005,42.3,0
2013-04-17T12:20:02,2013-04-17,58,12:20:02,301,3.539365607,991,36.30910441,7.761662292,33.99361038,0,25.50353241,420.3595886,11.42687798,25.48614311,97.36820221,110005,34.1,1
2013-04-17T12:20:48,2013-04-17,59,12:20:48,301,3.780382876,991,39.64683863,7.889438629,37.02669525,0,25.76288605,420.6466064,12.62173557,25.72292328,97.3747406,110005,34.1,1
2013-04-17T12:21:33,2013-04-17,60,12:21:33,301,3.756537679,991,41.8799448,8.092001343,38.9609375,0,25.98061562,420.7247009,13.46336174,25.9538517,97.37961578,110005,34.1,1
2013-04-17T12:22:54,2013-04-17,61,12:22:54,302,2.615372953,991,37.95736089,8.410311127,36.51909256,0,26.31937027,420.551178,12.84898186,26.25597572,97.36469269,110005,25.9,1
2013-04-17T12:23:55,2013-04-17,62,12:23:55,302,2.635739453,991,39.57068906,8.394553375,37.82556152,0,26.54306221,420.1952515,13.46192265,26.45081329,97.36937714,110005,25.9,1
2013-04-17T12:24:56,2013-04-17,63,12:24:56,302,2.645903421,991,41.12005904,8.374442291,39.20922089,0,26.72011757,420.4236755,14.08355522,26.60677528,97.36709595,110005,25.9,1
2013-04-17T12:27:40,2013-04-17,64,12:27:40,16,1.383579113,991,41.93910319,8.716531372,40.10494995,0,26.91037178,420.1434326,14.6183691,26.85684395,97.37033081,110005,23,0
2013-04-17T12:29:41,2013-04-17,65,12:29:41,16,1.296138788,991,45.70541699,8.840704346,44.0942688,0,26.75205803,420.2483826,15.93257046,26.70840073,97.3713913,110005,23,0
2013-04-17T12:31:39,2013-04-17,66,12:31:39,16,1.324707904,991,48.11350401,8.803783417,46.19343948,0,26.72378349,420.3528748,16.61566353,26.63054466,97.36590576,110005,23,0
2013-04-17T12:33:11,2013-04-17,67,12:33:11,17,4.087881938,991,38.77409223,7.929238892,37.42370987,0,26.69867897,420.5531311,13.48124313,26.65526581,97.36288452,110005,20.5,0
2013-04-17T12:33:48,2013-04-17,68,12:33:48,17,4.761503919,991,43.7279105,7.590681458,42.0592804,0,26.6950264,420.8458252,15.16526031,26.6697464,97.35512543,110005,20.5,0
2013-04-17T12:34:23,2013-04-17,69,12:34:23,17,4.821936114,991,46.60903685,7.335536957,44.55749512,0,26.73491859,421.1328125,16.09623337,26.70149994,97.35430908,110005,20.5,0
2013-04-26T09:40:57,2013-04-26,1,09:40:57,1,2.415273553,991,24.90177843,6.94144516,23.41070938,0,26.7184124,410.4541016,8.423817635,26.73752975,97.94567108,110005,33,0
2013-04-26T09:41:54,2013-04-26,2,09:41:54,1,2.815486305,991,26.18794948,6.951576996,24.57676888,0,26.64547157,410.5577087,8.791131973,26.63819504,97.95349884,110005,33,0
2013-04-26T09:42:37,2013-04-26,3,09:42:37,1,2.973455508,991,26.71779574,6.925656891,25.04181671,0,26.56816483,410.3957825,8.915485382,26.55718803,97.94637299,110005,33,0
2013-04-26T09:47:25,2013-04-26,4,09:47:25,2,2.367755935,991,24.76449508,6.958908081,22.72252464,0,26.28004646,410.3005066,7.925314903,26.20950127,97.94855499,110005,24,0
2013-04-26T09:48:26,2013-04-26,5,09:48:26,2,2.366024726,991,27.46021009,6.854977417,25.10568047,0,26.24738503,410.3171997,8.721031189,26.14144325,97.95249176,110005,24,0
2013-04-26T09:49:26,2013-04-26,6,09:49:26,2,2.374750185,991,29.22622188,6.80311203,26.67763519,0,26.16399956,410.3483582,9.211109161,26.03759003,97.9444046,110005,24,0
2013-04-26T09:50:55,2013-04-26,7,09:50:55,3,3.251392198,991,22.76784546,6.744256592,21.57261086,0,25.93817902,410.4515991,7.363367081,25.84334564,97.94367981,110005,38.2,0
2013-04-26T09:51:35,2013-04-26,8,09:51:35,3,3.582900307,991,23.06641506,6.614402771,21.76659203,0,25.92011642,410.5195618,7.419929028,25.82231712,97.94895172,110005,38.2,0
2013-04-26T09:52:14,2013-04-26,9,09:52:14,3,3.747197465,991,23.298678,6.55667038,21.91250801,0,25.82827377,410.6832581,7.447244167,25.77203941,97.95160675,110005,38.2,0
2013-04-26T09:53:48,2013-04-26,10,09:53:48,4,3.174416382,991,24.97684175,6.344235611,23.83307838,0,25.75379944,410.4582214,8.069832802,25.70804596,97.94514465,110005,34.9,0
2013-04-26T09:54:32,2013-04-26,11,09:54:32,4,3.382291199,991,25.7887553,6.571749878,24.43761063,0,25.92925835,410.6065369,8.350690842,25.86241722,97.94384003,110005,34.9,0
2013-04-26T09:55:16,2013-04-26,12,09:55:16,4,3.333217873,991,26.34718515,6.82826767,24.71805573,0,26.13508987,410.5817871,8.536454201,26.04037666,97.93831635,110005,34.9,0
2013-04-26T10:17:05,2013-04-26,19,10:17:05,5,1.87818936,991,27.2191989,7.29566803,24.89465332,0,25.55469322,410.3952026,8.365315437,25.58182526,97.95772552,110005,34.8,0
2013-04-26T10:18:22,2013-04-26,20,10:18:22,5,1.934994774,991,29.39949995,7.677094269,26.77572632,0,25.75712967,410.4139404,9.101615906,25.77661705,97.96155548,110005,34.8,0
2013-04-26T10:19:40,2013-04-26,21,10:19:40,5,1.885022482,991,30.91149533,7.918040466,28.21832848,0,25.95711136,410.3414001,9.696501732,25.95921135,97.95941162,110005,34.8,0
2013-04-26T10:21:23,2013-04-26,22,10:21:23,6,2.863432782,991,24.7438998,7.478289795,23.00188065,0,25.78256989,410.3277283,7.817963123,25.77443123,97.95944977,110005,26.3,0
2013-04-26T10:22:07,2013-04-26,23,10:22:07,6,3.659976655,991,25.94659309,7.169521332,24.10189438,0,25.77078056,410.490509,8.18819046,25.7675724,97.96327209,110005,26.3,0
2013-04-26T10:22:51,2013-04-26,24,10:22:51,6,3.488027976,991,26.81668901,6.966493225,24.84209442,0,25.73397064,410.3926697,8.420166969,25.72792435,97.95954132,110005,26.3,0
2013-04-26T10:24:26,2013-04-26,25,10:24:26,7,2.968302218,991,20.02822117,6.409307098,18.96658516,0,25.73875999,410.6055603,6.419573784,25.70496559,97.96500397,110005,44.1,0
2013-04-26T10:25:13,2013-04-26,26,10:25:13,7,3.212908933,991,20.34076218,6.280152512,19.11192894,0,25.86843681,410.6427307,6.509040356,25.81035233,97.96901703,110005,44.1,0
2013-04-26T10:25:59,2013-04-26,27,10:25:59,7,3.308700422,991,21.11917099,6.154776764,19.69966316,0,26.01785088,410.3791809,6.762521744,25.94410133,97.96966553,110005,44.1,0
2013-04-26T10:27:48,2013-04-26,28,10:27:48,8,2.095043181,991,29.30001068,6.221185303,26.62457657,0,26.08608818,410.3030396,9.185933113,26.02873993,97.96620178,110005,38.2,0
2013-04-26T10:29:01,2013-04-26,29,10:29:01,8,2.091633348,991,32.02201816,6.383967972,28.98906517,0,26.11476135,410.3425903,10.01976871,26.0588932,97.96433258,110005,38.2,0
2013-04-26T10:30:07,2013-04-26,30,10:30:07,8,2.386687727,991,33.82541332,6.636354828,30.3936615,0,26.16223717,410.1938782,10.55238819,26.13448715,97.96366119,110005,38.2,0
2013-04-26T12:35:29,2013-04-26,1,12:35:29,9,4.074619898,991,29.13439603,6.10860672,28.93193245,0,24.32019615,421.4146729,9.107843399,24.46695328,97.83978271,110005,44.8,0
2013-04-26T12:36:09,2013-04-26,2,12:36:09,9,3.608263389,991,30.18762713,5.9521595,30.02483368,0,24.3249855,420.4989929,9.455124855,24.47224045,97.8372879,110005,44.8,0
2013-04-26T12:36:49,2013-04-26,3,12:36:49,9,3.829278903,991,31.2927228,5.883596039,31.02654457,0,24.33228683,420.6661072,9.768671989,24.46869469,97.83556366,110005,44.8,0
2013-04-26T12:38:44,2013-04-26,4,12:38:44,10,4.194542598,991,21.36904321,8.371868134,21.12675095,0,24.13485909,420.4758606,6.566036701,24.25153351,97.83140564,110005,15.6,0
2013-04-26T12:39:21,2013-04-26,5,12:39:21,10,4.390547332,991,22.74784496,7.921427917,22.5439415,0,24.05832291,420.8204346,6.969495296,24.16290092,97.82926941,110005,15.6,0
2013-04-26T12:39:56,2013-04-26,6,12:39:56,10,4.566094479,991,23.64023714,7.778154755,23.37907219,0,23.92494965,420.7383728,7.176434517,24.04371262,97.82545471,110005,15.6,0
2013-04-26T12:59:49,2013-04-26,13,12:59:49,11,1.720398641,991,36.23907184,6.584147644,34.33818436,0,24.75173759,420.2833252,11.01359177,24.7740593,97.80843353,110005,30,0
2013-04-26T13:01:15,2013-04-26,14,13:01:15,11,1.865838582,991,37.79470286,6.683287048,35.70126343,0,24.75942802,420.2871399,11.44069576,24.75967216,97.81060028,110005,30,0
2013-04-26T13:02:39,2013-04-26,15,13:02:39,11,1.89946045,991,38.91458427,6.794244385,36.61042404,0,24.7375927,420.3010559,11.7157402,24.73648262,97.81113434,110005,30,0
2013-04-26T13:09:58,2013-04-26,16,13:09:58,12,3.624251627,991,23.55833518,7.480757141,22.85007286,0,24.7389164,420.5370483,7.342257023,24.80810356,97.8292923,110005,32,0
2013-04-26T13:10:44,2013-04-26,17,13:10:44,12,3.199673281,991,23.14238821,7.381636047,22.37223053,0,24.97972488,420.3323364,7.284840584,25.03115082,97.83152008,110005,32,0
2013-04-26T13:11:29,2013-04-26,18,13:11:29,12,3.467448348,991,23.15914289,7.208940887,22.25624275,0,25.12078857,420.7389526,7.312015057,25.18097496,97.83190155,110005,32,0
2013-04-26T13:13:20,2013-04-26,19,13:13:20,13,2.464602817,991,18.5271372,7.733200836,17.96193314,0,25.06502151,420.3149719,5.881492615,25.12434578,97.82878876,110005,34.4,0
2013-04-26T13:14:16,2013-04-26,20,13:14:16,13,2.653215298,991,18.87466256,7.598857117,18.32542419,0,25.0414505,420.2909546,5.986897945,25.08572197,97.82595062,110005,34.4,0
2013-04-26T13:15:10,2013-04-26,21,13:15:10,13,2.715388811,991,19.16611358,7.490071106,18.54668617,0,25.01920319,420.4221497,6.043932915,25.04263687,97.82133484,110005,34.4,0
2013-04-26T13:16:46,2013-04-26,22,13:16:46,14,2.51885166,991,23.27137279,7.927437592,22.34422112,0,24.91594505,420.4199219,7.227850437,24.91853523,97.82035065,110005,38.8,0
2013-04-26T13:17:44,2013-04-26,23,13:17:44,14,2.632346028,991,24.82763107,7.947679138,23.76251221,0,24.85140419,420.4688721,7.655200005,24.84967804,97.81929016,110005,38.8,0
2013-04-26T13:18:41,2013-04-26,24,13:18:41,14,2.694517112,991,25.93156826,7.96091156,24.68828011,0,24.79512215,420.3268127,7.925002575,24.7899437,97.82083893,110005,38.8,0
2013-04-26T13:20:52,2013-04-26,25,13:20:52,15,3.111850409,991,24.19814844,7.447623444,22.91093445,0,24.30090904,420.5525208,7.141942024,24.30029297,97.82386017,110005,25.1,0
2013-04-26T13:21:37,2013-04-26,26,13:21:37,15,3.509100851,991,25.88662387,7.389038086,24.49588013,0,24.19804382,420.4689026,7.589373589,24.19779778,97.82200623,110005,25.1,0
2013-04-26T13:22:19,2013-04-26,27,13:22:19,15,3.652926556,991,26.97980907,7.384397125,25.43694496,0,24.15620613,420.5245667,7.860337257,24.15398598,97.82091522,110005,25.1,0
2013-04-26T13:36:19,2013-04-26,28,13:36:19,16,0.771123562,991,36.81769744,10.04653854,33.20647812,0,23.05906677,416.3056641,9.609106064,23.06511307,97.82666016,110005,35.4,0
2013-04-26T13:39:07,2013-04-26,29,13:39:07,16,0.760719338,991,40.08601549,10.01339798,36.20326996,0,22.78305244,417.0776062,10.30822849,22.79896164,97.83213043,110005,35.4,0
2013-04-26T13:41:47,2013-04-26,30,13:41:47,16,0.766633764,991,42.41424267,9.966892242,38.13615799,0,22.52466011,416.5700073,10.68387032,22.53119469,97.82944489,110005,35.4,0
2013-04-26T13:52:29,2013-04-26,37,13:52:29,17,3.364435511,991,34.2242934,8.986994934,31.82385254,0,23.37928963,420.4878845,9.37245369,23.35622787,97.82659149,110005,14.8,0
2013-04-26T13:53:13,2013-04-26,38,13:53:13,17,3.585647944,991,34.76326164,8.723947144,32.23038483,0,23.53048515,420.4046021,9.578309059,23.50557709,97.8243866,110005,14.8,0
2013-04-26T13:53:56,2013-04-26,39,13:53:56,17,3.672005648,991,34.9571765,8.478520203,32.33657074,0,23.63444138,420.5396118,9.664196968,23.59941673,97.82617188,110005,14.8,0
2013-04-26T10:03:07,2013-04-26,13,10:03:07,101,1.557464696,991,36.85759653,6.884973907,34.48885345,0,26.08526421,410.1635742,11.96052933,26.1126442,97.94905853,110005,29.4,1
2013-04-26T10:04:39,2013-04-26,14,10:04:39,101,1.612308007,991,40.13409767,6.716055298,37.11925125,0,26.19976807,410.1214905,12.97318172,26.24342537,97.94473267,110005,29.4,1
2013-04-26T10:06:11,2013-04-26,15,10:06:11,101,1.632149124,991,42.57725957,6.670805359,39.01067352,0,26.2446785,410.3075867,13.65742874,26.27304459,97.9495697,110005,29.4,1
2013-04-26T10:08:42,2013-04-26,16,10:08:42,102,1.390780825,991,33.35412323,6.703379822,30.15000916,0,26.20077324,410.212677,10.51788235,26.2118721,97.94403076,110005,29.2,1
2013-04-26T10:10:26,2013-04-26,17,10:10:26,102,1.37875999,991,35.58569445,6.555534363,31.65797997,0,26.45738602,410.2757568,11.20004082,26.44887733,97.93955231,110005,29.2,1
2013-04-26T10:12:11,2013-04-26,18,10:12:11,102,1.376540124,991,37.04341154,6.536808777,32.59089279,0,26.700037,410.1909485,11.68366337,26.6727829,97.93585205,110005,29.2,1
2013-04-26T12:45:15,2013-04-26,7,12:45:15,201,1.957221659,991,27.5706532,7.706303406,26.06403923,0,23.05281067,420.4078064,7.548968792,23.08141899,97.83627319,110005,37.6,1
2013-04-26T12:46:26,2013-04-26,8,12:46:26,201,2.146981576,991,29.62490549,7.598300171,27.97701836,0,22.91578865,420.451355,8.039769173,22.95130539,97.83265686,110005,37.6,1
2013-04-26T12:47:34,2013-04-26,9,12:47:34,201,2.238856691,991,30.76057507,7.506708527,28.88889885,0,22.99467468,420.4104919,8.332529068,23.01107979,97.82540894,110005,37.6,1
2013-04-26T12:50:40,2013-04-26,10,12:50:40,202,1.232578903,991,37.07174791,7.836064148,34.52526474,0,23.23975563,420.214386,10.1065712,23.25529289,97.82359314,110005,33.9,1
2013-04-26T12:52:28,2013-04-26,11,12:52:28,202,1.371351474,991,38.90611587,7.768442535,35.6597023,0,23.63942337,420.2823792,10.67324829,23.62376022,97.82388306,110005,33.9,1
2013-04-26T12:54:14,2013-04-26,12,12:54:14,202,1.377603675,991,39.83534478,7.613574982,35.98810196,0,24.28072357,420.2325745,11.18091106,24.24582291,97.83222961,110005,33.9,1
2013-04-26T13:43:43,2013-04-26,31,13:43:43,301,2.233224957,991,36.03516588,9.587090302,32.16821671,0,22.35959053,420.3903503,8.917458534,22.35885239,97.83581543,110005,25.7,1
2013-04-26T13:44:49,2013-04-26,32,13:44:49,301,2.32124469,991,38.87005996,9.507514954,34.68632126,0,22.22762299,420.2670593,9.542643547,22.23390961,97.83621979,110005,25.7,1
2013-04-26T13:45:53,2013-04-26,33,13:45:53,301,2.354684999,991,40.53419893,9.436432648,36.20233154,0,22.16388702,420.3352966,9.920590401,22.16931152,97.83647156,110005,25.7,1
2013-04-26T13:48:14,2013-04-26,34,13:48:14,302,1.781126481,991,27.89212863,9.766096497,25.24385452,0,22.52516174,420.2955017,7.074052334,22.53601265,97.83083344,110005,24.1,1
2013-04-26T13:49:34,2013-04-26,35,13:49:34,302,1.830755693,991,28.16274834,9.891668701,25.320364,0,22.84518242,420.231781,7.231914043,22.8497467,97.82978821,110005,24.1,1